Location: Perryvale
(54.4667°N, 113.3833°W)
Time: 00:52:19
(UTC+00:00)

SR - Pass Details

Date: 23 May 2024
Orbit: 580 x 858 km, 66.7° (Epoch: 13 June)

Event Time Altitude Azimuth Distance (km) Brightness Sun altitude
Rises 08:17:08 0° 318° (NW) 2,942 ? -14.2°
Reaches altitude 10° 08:19:33 10° 324° (NW) 1,995 ? -14.1°
Maximum altitude 08:23:51 47° 39° (NE) 799 ? -14.0°
Drops below altitude 10° 08:27:58 10° 114° (ESE) 1,905 ? -13.8°
Sets 08:30:14 0° 120° (ESE) 2,795 ? -13.7°
